Time,TemperatureF,DewpointF,PressureIn,WindDirection,WindDirectionDegrees,WindSpeedMPH,WindSpeedGustMPH,Humidity,HourlyPrecipIn,Conditions,Clouds,dailyrainin,SoftwareType,DateUTC
2013-03-29 00:00:00,40.3,34.0,29.56,ENE,67,0.0,3.0,78,0.00,,,0.00,meteohub,2013-03-29 05:00:00,
2013-03-29 00:05:00,40.1,33.8,29.56,ENE,67,0.0,3.0,78,0.00,,,0.00,meteohub,2013-03-29 05:05:00,
2013-03-29 00:10:00,39.9,33.6,29.57,ENE,67,0.0,3.0,78,0.00,,,0.00,meteohub,2013-03-29 05:10:00,
2013-03-29 00:15:00,39.9,33.6,29.56,ENE,68,0.0,3.0,78,0.00,,,0.00,meteohub,2013-03-29 05:15:00,
2013-03-29 00:20:00,39.9,33.6,29.56,ENE,68,0.0,3.0,78,0.00,,,0.00,meteohub,2013-03-29 05:20:00,
2013-03-29 00:25:00,39.9,33.6,29.56,ENE,68,0.0,3.0,78,0.00,,,0.00,meteohub,2013-03-29 05:25:00,
2013-03-29 00:30:00,39.7,33.4,29.56,ENE,63,0.0,3.0,78,0.00,,,0.00,meteohub,2013-03-29 05:30:00,
2013-03-29 00:35:00,39.7,33.4,29.57,ENE,63,0.0,4.0,78,0.00,,,0.00,meteohub,2013-03-29 05:35:00,
2013-03-29 00:41:00,39.7,33.8,29.57,ENE,63,0.0,4.0,79,0.00,,,0.00,meteohub,2013-03-29 05:41:00,
2013-03-29 00:46:00,39.7,33.8,29.57,NE,56,3.0,4.0,79,0.00,,,0.00,meteohub,2013-03-29 05:46:00,
2013-03-29 00:51:00,39.7,33.8,29.57,NE,56,3.0,4.0,79,0.00,,,0.00,meteohub,2013-03-29 05:51:00,
2013-03-29 00:57:00,39.6,33.6,29.57,NE,40,3.0,4.0,79,0.00,,,0.00,meteohub,2013-03-29 05:57:00,
2013-03-29 01:02:00,39.6,33.6,29.56,NE,40,0.0,4.0,79,0.00,,,0.00,meteohub,2013-03-29 06:02:00,
2013-03-29 01:07:00,39.4,33.8,29.56,NE,44,3.0,4.0,80,0.00,,,0.00,meteohub,2013-03-29 06:07:00,
2013-03-29 01:12:00,39.4,33.8,29.56,NE,44,0.0,4.0,80,0.00,,,0.00,meteohub,2013-03-29 06:12:00,
2013-03-29 01:17:00,39.4,33.8,29.56,NE,53,4.0,4.0,80,0.00,,,0.00,meteohub,2013-03-29 06:17:00,
2013-03-29 01:22:00,39.2,33.6,29.56,NE,49,4.0,7.0,80,0.00,,,0.00,meteohub,2013-03-29 06:22:00,
2013-03-29 01:27:00,39.0,33.4,29.56,ENE,57,2.0,7.0,80,0.00,,,0.00,meteohub,2013-03-29 06:27:00,
2013-03-29 01:32:00,39.0,33.4,29.56,NE,55,3.0,7.0,80,0.00,,,0.00,meteohub,2013-03-29 06:32:00,
2013-03-29 01:37:00,39.0,33.4,29.56,ENE,58,1.0,5.0,80,0.00,,,0.00,meteohub,2013-03-29 06:37:00,
2013-03-29 01:42:00,38.8,33.3,29.56,ENE,58,0.0,5.0,80,0.00,,,0.00,meteohub,2013-03-29 06:42:00,
2013-03-29 01:47:00,38.8,33.3,29.56,ENE,58,0.0,4.0,80,0.00,,,0.00,meteohub,2013-03-29 06:47:00,
2013-03-29 01:52:00,38.7,33.1,29.55,ENE,58,0.0,3.0,80,0.00,,,0.00,meteohub,2013-03-29 06:52:00,
2013-03-29 01:57:00,38.5,33.1,29.56,ENE,58,0.0,3.0,81,0.00,,,0.00,meteohub,2013-03-29 06:57:00,
2013-03-29 02:02:00,38.1,32.7,29.55,ENE,58,0.0,2.0,81,0.00,,,0.00,meteohub,2013-03-29 07:02:00,
2013-03-29 02:07:00,38.1,32.7,29.56,ENE,58,0.0,1.0,81,0.00,,,0.00,meteohub,2013-03-29 07:07:00,
2013-03-29 02:12:00,37.9,32.7,29.56,ENE,58,3.0,0.0,81,0.00,,,0.00,meteohub,2013-03-29 07:12:00,
2013-03-29 02:17:00,37.9,32.7,29.55,ENE,58,1.0,4.0,81,0.00,,,0.00,meteohub,2013-03-29 07:17:00,
2013-03-29 02:22:00,37.9,32.7,29.56,ENE,57,1.0,4.0,81,0.00,,,0.00,meteohub,2013-03-29 07:22:00,
2013-03-29 02:27:00,37.9,32.7,29.56,NE,54,1.0,4.0,81,0.00,,,0.00,meteohub,2013-03-29 07:27:00,
2013-03-29 02:32:00,37.9,32.7,29.55,NE,42,5.0,5.0,81,0.00,,,0.00,meteohub,2013-03-29 07:32:00,
2013-03-29 02:37:00,37.9,32.9,29.55,NE,35,1.0,5.0,82,0.00,,,0.00,meteohub,2013-03-29 07:37:00,
2013-03-29 02:42:00,37.9,32.9,29.55,NE,38,2.0,5.0,82,0.00,,,0.00,meteohub,2013-03-29 07:42:00,
2013-03-29 02:47:00,37.8,32.7,29.55,NE,48,2.0,5.0,82,0.00,,,0.00,meteohub,2013-03-29 07:47:00,
2013-03-29 02:52:00,37.8,32.7,29.55,NE,41,3.0,5.0,82,0.00,,,0.00,meteohub,2013-03-29 07:52:00,
2013-03-29 02:57:00,37.8,32.7,29.55,NE,41,2.0,5.0,82,0.00,,,0.00,meteohub,2013-03-29 07:57:00,
2013-03-29 03:02:00,37.6,32.5,29.55,NE,47,3.0,5.0,82,0.00,,,0.00,meteohub,2013-03-29 08:02:00,
2013-03-29 03:07:00,37.6,32.5,29.55,NE,50,0.0,5.0,82,0.00,,,0.00,meteohub,2013-03-29 08:07:00,
2013-03-29 03:12:00,37.4,32.2,29.55,NE,50,0.0,5.0,81,0.00,,,0.00,meteohub,2013-03-29 08:12:00,
2013-03-29 03:17:00,37.2,32.0,29.54,NE,50,1.0,4.0,81,0.00,,,0.00,meteohub,2013-03-29 08:17:00,
2013-03-29 03:22:00,37.0,31.8,29.54,NE,50,0.0,3.0,81,0.00,,,0.00,meteohub,2013-03-29 08:22:00,
2013-03-29 03:27:00,37.0,31.8,29.54,NE,50,0.0,3.0,81,0.00,,,0.00,meteohub,2013-03-29 08:27:00,
2013-03-29 03:32:00,36.9,31.8,29.54,NE,50,0.0,2.0,82,0.00,,,0.00,meteohub,2013-03-29 08:32:00,
2013-03-29 03:37:00,36.9,31.8,29.53,NE,50,0.0,2.0,82,0.00,,,0.00,meteohub,2013-03-29 08:37:00,
2013-03-29 03:43:00,36.9,31.8,29.53,NE,50,0.0,1.0,82,0.00,,,0.00,meteohub,2013-03-29 08:43:00,
2013-03-29 03:48:00,36.7,31.6,29.53,NE,50,0.0,2.0,82,0.00,,,0.00,meteohub,2013-03-29 08:48:00,
2013-03-29 03:53:00,36.7,31.6,29.53,NE,50,0.0,2.0,82,0.00,,,0.00,meteohub,2013-03-29 08:53:00,
2013-03-29 03:58:00,36.7,31.6,29.53,NE,50,0.0,2.0,82,0.00,,,0.00,meteohub,2013-03-29 08:58:00,
2013-03-29 04:03:00,36.7,31.6,29.53,NE,50,0.0,0.0,82,0.00,,,0.00,meteohub,2013-03-29 09:03:00,
2013-03-29 04:08:00,36.5,31.5,29.53,NE,50,0.0,0.0,82,0.00,,,0.00,meteohub,2013-03-29 09:08:00,
2013-03-29 04:13:00,36.5,31.5,29.53,NE,50,0.0,0.0,82,0.00,,,0.00,meteohub,2013-03-29 09:13:00,
2013-03-29 04:18:00,36.5,31.5,29.53,NE,50,0.0,0.0,82,0.00,,,0.00,meteohub,2013-03-29 09:18:00,
2013-03-29 04:23:00,36.3,31.3,29.53,NE,50,0.0,0.0,82,0.00,,,0.00,meteohub,2013-03-29 09:23:00,
2013-03-29 04:28:00,36.3,31.3,29.53,NE,50,0.0,0.0,82,0.00,,,0.00,meteohub,2013-03-29 09:28:00,
2013-03-29 04:33:00,36.3,31.3,29.53,NE,50,2.0,0.0,82,0.00,,,0.00,meteohub,2013-03-29 09:33:00,
2013-03-29 04:38:00,36.1,31.1,29.53,NE,50,0.0,2.0,82,0.00,,,0.00,meteohub,2013-03-29 09:38:00,
2013-03-29 04:43:00,36.1,31.5,29.53,NE,50,0.0,2.0,83,0.00,,,0.00,meteohub,2013-03-29 09:43:00,
2013-03-29 04:48:00,36.1,31.5,29.53,NE,50,0.0,2.0,83,0.00,,,0.00,meteohub,2013-03-29 09:48:00,
2013-03-29 04:53:00,36.1,31.5,29.53,NE,44,3.0,0.0,83,0.00,,,0.00,meteohub,2013-03-29 09:53:00,
2013-03-29 04:58:00,36.0,31.3,29.53,NE,44,0.0,4.0,83,0.00,,,0.00,meteohub,2013-03-29 09:58:00,
2013-03-29 05:03:00,36.0,31.3,29.53,NE,44,2.0,4.0,83,0.00,,,0.00,meteohub,2013-03-29 10:03:00,
2013-03-29 05:08:00,35.8,31.1,29.53,NE,44,1.0,4.0,83,0.00,,,0.00,meteohub,2013-03-29 10:08:00,
2013-03-29 05:13:00,35.8,31.1,29.53,NE,38,2.0,4.0,83,0.00,,,0.00,meteohub,2013-03-29 10:13:00,
2013-03-29 05:18:00,35.8,31.5,29.53,NE,34,1.0,5.0,84,0.00,,,0.00,meteohub,2013-03-29 10:18:00,
2013-03-29 05:23:00,35.6,31.3,29.54,NE,34,0.0,5.0,84,0.00,,,0.00,meteohub,2013-03-29 10:23:00,
2013-03-29 05:28:00,35.4,31.1,29.54,NE,34,1.0,5.0,84,0.00,,,0.00,meteohub,2013-03-29 10:28:00,
2013-03-29 05:33:00,35.4,30.7,29.54,NE,34,3.0,3.0,83,0.00,,,0.00,meteohub,2013-03-29 10:33:00,
2013-03-29 05:38:00,35.4,31.1,29.54,NE,34,2.0,4.0,84,0.00,,,0.00,meteohub,2013-03-29 10:38:00,
2013-03-29 05:43:00,35.2,30.9,29.55,NE,34,0.0,4.0,84,0.00,,,0.00,meteohub,2013-03-29 10:43:00,
2013-03-29 05:48:00,35.2,30.9,29.55,NNE,31,1.0,4.0,84,0.00,,,0.00,meteohub,2013-03-29 10:48:00,
2013-03-29 05:53:00,35.2,30.9,29.55,NNE,31,0.0,4.0,84,0.00,,,0.00,meteohub,2013-03-29 10:53:00,
2013-03-29 05:58:00,35.2,30.9,29.55,NNE,31,2.0,4.0,84,0.00,,,0.00,meteohub,2013-03-29 10:58:00,
2013-03-29 06:04:00,35.2,31.1,29.55,NE,40,0.0,3.0,85,0.00,,,0.00,meteohub,2013-03-29 11:04:00,
2013-03-29 06:09:00,35.2,31.1,29.55,NE,40,2.0,4.0,85,0.00,,,0.00,meteohub,2013-03-29 11:09:00,
2013-03-29 06:14:00,35.2,31.1,29.55,NE,40,0.0,4.0,85,0.00,,,0.00,meteohub,2013-03-29 11:14:00,
2013-03-29 06:19:00,35.2,31.1,29.55,NE,40,2.0,4.0,85,0.00,,,0.00,meteohub,2013-03-29 11:19:00,
2013-03-29 06:24:00,35.1,30.9,29.55,NE,49,2.0,3.0,85,0.00,,,0.00,meteohub,2013-03-29 11:24:00,
2013-03-29 06:29:00,35.1,30.9,29.55,NE,49,3.0,4.0,85,0.00,,,0.00,meteohub,2013-03-29 11:29:00,
2013-03-29 06:34:00,35.1,30.9,29.55,NE,49,2.0,4.0,85,0.00,,,0.00,meteohub,2013-03-29 11:34:00,
2013-03-29 06:39:00,34.9,30.9,29.55,NE,49,0.0,4.0,85,0.00,,,0.00,meteohub,2013-03-29 11:39:00,
2013-03-29 06:44:00,34.9,30.9,29.55,NE,49,1.0,4.0,85,0.00,,,0.00,meteohub,2013-03-29 11:44:00,
2013-03-29 06:49:00,34.9,30.9,29.55,NE,49,0.0,4.0,85,0.00,,,0.00,meteohub,2013-03-29 11:49:00,
2013-03-29 06:54:00,34.7,30.9,29.55,NE,49,0.0,4.0,86,0.00,,,0.00,meteohub,2013-03-29 11:54:00,
2013-03-29 06:59:00,34.5,30.7,29.55,NE,49,2.0,3.0,86,0.00,,,0.00,meteohub,2013-03-29 11:59:00,
2013-03-29 07:04:00,34.7,30.9,29.55,NE,49,0.0,1.0,86,0.00,,,0.00,meteohub,2013-03-29 12:04:00,
2013-03-29 07:09:00,34.7,30.9,29.55,ENE,61,0.0,3.0,86,0.00,,,0.00,meteohub,2013-03-29 12:09:00,
2013-03-29 07:14:00,34.9,31.1,29.56,ENE,61,1.0,3.0,86,0.00,,,0.00,meteohub,2013-03-29 12:14:00,
2013-03-29 07:19:00,34.9,31.1,29.56,ENE,61,0.0,3.0,86,0.00,,,0.00,meteohub,2013-03-29 12:19:00,
2013-03-29 07:24:00,34.9,31.1,29.56,ENE,61,1.0,3.0,86,0.00,,,0.00,meteohub,2013-03-29 12:24:00,
2013-03-29 07:29:00,35.1,31.3,29.56,ENE,61,1.0,3.0,86,0.00,,,0.00,meteohub,2013-03-29 12:29:00,
2013-03-29 07:34:00,35.2,31.5,29.56,ENE,61,0.0,3.0,86,0.00,,,0.00,meteohub,2013-03-29 12:34:00,
2013-03-29 07:40:00,35.2,31.5,29.56,ENE,63,0.0,3.0,86,0.00,,,0.00,meteohub,2013-03-29 12:40:00,
2013-03-29 07:45:00,35.4,31.6,29.56,ENE,63,0.0,3.0,86,0.00,,,0.00,meteohub,2013-03-29 12:45:00,
2013-03-29 07:50:00,35.8,31.6,29.56,ENE,63,0.0,3.0,85,0.00,,,0.00,meteohub,2013-03-29 12:50:00,
2013-03-29 07:55:00,36.0,31.8,29.57,ENE,63,0.0,3.0,85,0.00,,,0.00,meteohub,2013-03-29 12:55:00,
2013-03-29 08:00:00,36.1,32.0,29.57,ENE,63,0.0,4.0,85,0.00,,,0.00,meteohub,2013-03-29 13:00:00,
2013-03-29 08:05:00,36.5,32.4,29.57,ENE,63,0.0,4.0,85,0.00,,,0.00,meteohub,2013-03-29 13:05:00,
2013-03-29 08:10:00,36.9,32.5,29.57,ENE,63,2.0,4.0,84,0.00,,,0.00,meteohub,2013-03-29 13:10:00,
2013-03-29 08:15:00,37.2,32.9,29.57,ENE,65,3.0,3.0,84,0.00,,,0.00,meteohub,2013-03-29 13:15:00,
2013-03-29 08:20:00,37.8,33.4,29.57,ESE,110,3.0,3.0,84,0.00,,,0.00,meteohub,2013-03-29 13:20:00,
2013-03-29 08:25:00,38.1,33.4,29.56,ESE,111,3.0,4.0,83,0.00,,,0.00,meteohub,2013-03-29 13:25:00,
2013-03-29 08:30:00,38.7,34.0,29.56,ESE,111,0.0,5.0,83,0.00,,,0.00,meteohub,2013-03-29 13:30:00,
2013-03-29 08:35:00,39.2,33.8,29.56,ESE,111,2.0,5.0,81,0.00,,,0.00,meteohub,2013-03-29 13:35:00,
2013-03-29 08:40:00,39.7,34.2,29.57,ESE,105,5.0,5.0,80,0.00,,,0.00,meteohub,2013-03-29 13:40:00,
2013-03-29 08:45:00,40.1,34.2,29.57,ESE,119,6.0,7.0,79,0.00,,,0.00,meteohub,2013-03-29 13:45:00,
2013-03-29 08:50:00,40.5,34.2,29.57,ESE,115,2.0,7.0,78,0.00,,,0.00,meteohub,2013-03-29 13:50:00,
2013-03-29 08:55:00,40.8,34.5,29.57,ESE,119,5.0,7.0,78,0.00,,,0.00,meteohub,2013-03-29 13:55:00,
2013-03-29 09:00:00,41.4,35.1,29.57,ESE,121,1.0,6.0,78,0.00,,,0.00,meteohub,2013-03-29 14:00:00,
2013-03-29 09:05:00,41.7,35.1,29.57,ESE,109,5.0,6.0,77,0.00,,,0.00,meteohub,2013-03-29 14:05:00,
2013-03-29 09:10:00,42.3,35.2,29.58,SE,144,3.0,6.0,76,0.00,,,0.00,meteohub,2013-03-29 14:10:00,
2013-03-29 09:15:00,42.8,35.8,29.58,SE,144,2.0,6.0,76,0.00,,,0.00,meteohub,2013-03-29 14:15:00,
2013-03-29 09:20:00,43.3,36.0,29.58,SE,130,1.0,6.0,75,0.00,,,0.00,meteohub,2013-03-29 14:20:00,
2013-03-29 09:25:00,43.9,36.1,29.58,SE,126,2.0,6.0,74,0.00,,,0.00,meteohub,2013-03-29 14:25:00,
2013-03-29 09:26:00,44.1,36.3,29.58,SE,126,3.0,6.0,74,0.00,,,0.00,meteohub,2013-03-29 14:26:00,
2013-03-29 09:32:00,44.8,36.7,29.58,SE,126,0.0,6.0,73,0.00,,,0.00,meteohub,2013-03-29 14:32:00,
2013-03-29 09:37:00,45.0,36.5,29.58,ESE,118,2.0,6.0,72,0.00,,,0.00,meteohub,2013-03-29 14:37:00,
2013-03-29 09:42:00,45.1,36.7,29.58,ESE,113,3.0,6.0,72,0.00,,,0.00,meteohub,2013-03-29 14:42:00,
2013-03-29 09:47:00,45.3,36.9,29.58,East,85,1.0,6.0,72,0.00,,,0.00,meteohub,2013-03-29 14:47:00,
2013-03-29 09:52:00,45.7,37.2,29.58,NE,53,3.0,6.0,72,0.00,,,0.00,meteohub,2013-03-29 14:52:00,
2013-03-29 09:57:00,45.9,37.8,29.58,ENE,74,2.0,6.0,73,0.00,,,0.00,meteohub,2013-03-29 14:57:00,
2013-03-29 10:02:00,46.2,37.8,29.58,ENE,74,0.0,6.0,72,0.00,,,0.00,meteohub,2013-03-29 15:02:00,
2013-03-29 10:07:00,46.8,37.9,29.58,ENE,78,1.0,5.0,71,0.00,,,0.00,meteohub,2013-03-29 15:07:00,
2013-03-29 10:12:00,46.9,37.6,29.59,ENE,71,4.0,5.0,70,0.00,,,0.00,meteohub,2013-03-29 15:12:00,
2013-03-29 10:17:00,47.1,37.8,29.58,East,96,1.0,5.0,70,0.00,,,0.00,meteohub,2013-03-29 15:17:00,
2013-03-29 10:22:00,47.7,38.3,29.59,ESE,114,0.0,5.0,70,0.00,,,0.00,meteohub,2013-03-29 15:22:00,
2013-03-29 10:27:00,48.2,38.8,29.59,ESE,107,2.0,5.0,70,0.00,,,0.00,meteohub,2013-03-29 15:27:00,
2013-03-29 10:32:00,48.7,39.0,29.59,ESE,105,1.0,5.0,69,0.00,,,0.00,meteohub,2013-03-29 15:32:00,
2013-03-29 10:37:00,48.9,39.2,29.59,ENE,60,3.0,5.0,69,0.00,,,0.00,meteohub,2013-03-29 15:37:00,
2013-03-29 10:42:00,49.3,39.6,29.59,ENE,65,2.0,6.0,69,0.00,,,0.00,meteohub,2013-03-29 15:42:00,
2013-03-29 10:47:00,49.6,39.9,29.59,ENE,63,2.0,6.0,69,0.00,,,0.00,meteohub,2013-03-29 15:47:00,
2013-03-29 10:52:00,50.2,40.5,29.58,East,94,3.0,6.0,69,0.00,,,0.00,meteohub,2013-03-29 15:52:00,
2013-03-29 10:57:00,50.4,40.6,29.59,NE,51,0.0,10.0,69,0.00,,,0.00,meteohub,2013-03-29 15:57:00,
2013-03-29 11:02:00,50.5,40.8,29.58,NE,36,5.0,10.0,69,0.00,,,0.00,meteohub,2013-03-29 16:02:00,
2013-03-29 11:07:00,50.7,41.0,29.58,East,98,0.0,10.0,69,0.00,,,0.00,meteohub,2013-03-29 16:07:00,
2013-03-29 11:12:00,51.1,41.2,29.58,ENE,78,3.0,9.0,69,0.00,,,0.00,meteohub,2013-03-29 16:12:00,
2013-03-29 11:17:00,51.3,41.0,29.58,ESE,120,4.0,9.0,68,0.00,,,0.00,meteohub,2013-03-29 16:17:00,
2013-03-29 11:23:00,51.3,41.4,29.58,NE,49,5.0,9.0,69,0.00,,,0.00,meteohub,2013-03-29 16:23:00,
2013-03-29 11:28:00,51.6,41.7,29.58,SE,132,6.0,9.0,69,0.00,,,0.00,meteohub,2013-03-29 16:28:00,
2013-03-29 11:33:00,52.0,42.1,29.58,NNE,28,2.0,9.0,69,0.00,,,0.00,meteohub,2013-03-29 16:33:00,
2013-03-29 11:38:00,52.2,41.9,29.58,ENE,71,3.0,9.0,68,0.00,,,0.00,meteohub,2013-03-29 16:38:00,
2013-03-29 11:43:00,52.3,42.1,29.58,East,96,2.0,9.0,68,0.00,,,0.00,meteohub,2013-03-29 16:43:00,
2013-03-29 11:48:00,52.5,42.3,29.58,East,94,4.0,7.0,68,0.00,,,0.00,meteohub,2013-03-29 16:48:00,
2013-03-29 11:53:00,53.1,42.4,29.58,East,96,0.0,8.0,67,0.00,,,0.00,meteohub,2013-03-29 16:53:00,
2013-03-29 11:58:00,53.1,42.1,29.58,ESE,113,7.0,8.0,66,0.00,,,0.00,meteohub,2013-03-29 16:58:00,
2013-03-29 12:03:00,53.4,42.3,29.58,East,79,4.0,7.0,66,0.00,,,0.00,meteohub,2013-03-29 17:03:00,
2013-03-29 12:08:00,53.6,42.4,29.57,NE,44,2.0,10.0,66,0.00,,,0.00,meteohub,2013-03-29 17:08:00,
2013-03-29 12:13:00,53.8,42.6,29.57,NE,36,3.0,10.0,66,0.00,,,0.00,meteohub,2013-03-29 17:13:00,
2013-03-29 12:18:00,54.1,42.6,29.57,ESE,120,5.0,9.0,65,0.00,,,0.00,meteohub,2013-03-29 17:18:00,
2013-03-29 12:23:00,54.3,42.8,29.57,NE,49,4.0,9.0,65,0.00,,,0.00,meteohub,2013-03-29 17:23:00,
2013-03-29 12:28:00,54.7,43.2,29.57,ESE,111,5.0,9.0,65,0.00,,,0.00,meteohub,2013-03-29 17:28:00,
2013-03-29 12:33:00,55.6,43.5,29.57,SE,138,5.0,8.0,64,0.00,,,0.00,meteohub,2013-03-29 17:33:00,
2013-03-29 12:38:00,55.8,43.3,29.57,ESE,118,0.0,8.0,63,0.00,,,0.00,meteohub,2013-03-29 17:38:00,
2013-03-29 12:43:00,55.6,43.2,29.57,ESE,108,2.0,8.0,63,0.00,,,0.00,meteohub,2013-03-29 17:43:00,
2013-03-29 12:48:00,55.8,43.3,29.57,ENE,63,4.0,9.0,63,0.00,,,0.00,meteohub,2013-03-29 17:48:00,
2013-03-29 12:53:00,55.9,43.2,29.56,ENE,78,1.0,9.0,62,0.00,,,0.00,meteohub,2013-03-29 17:53:00,
2013-03-29 12:58:00,56.1,43.3,29.57,NE,56,8.0,9.0,62,0.00,,,0.00,meteohub,2013-03-29 17:58:00,
2013-03-29 13:03:00,56.8,43.2,29.56,East,86,4.0,10.0,60,0.00,,,0.00,meteohub,2013-03-29 18:03:00,
2013-03-29 13:08:00,57.0,43.3,29.56,ESE,119,4.0,10.0,60,0.00,,,0.00,meteohub,2013-03-29 18:08:00,
2013-03-29 13:13:00,57.2,43.5,29.56,ENE,61,5.0,10.0,60,0.00,,,0.00,meteohub,2013-03-29 18:13:00,
2013-03-29 13:18:00,57.2,43.9,29.56,NE,44,5.0,10.0,61,0.00,,,0.00,meteohub,2013-03-29 18:18:00,
2013-03-29 13:24:00,57.6,43.3,29.56,East,89,2.0,11.0,59,0.00,,,0.00,meteohub,2013-03-29 18:24:00,
2013-03-29 13:29:00,57.9,43.7,29.56,ESE,109,6.0,11.0,59,0.00,,,0.00,meteohub,2013-03-29 18:29:00,
2013-03-29 13:34:00,57.7,43.9,29.56,East,89,6.0,11.0,60,0.00,,,0.00,meteohub,2013-03-29 18:34:00,
2013-03-29 13:39:00,58.1,43.3,29.55,SE,142,4.0,9.0,58,0.00,,,0.00,meteohub,2013-03-29 18:39:00,
2013-03-29 13:44:00,58.3,43.5,29.55,NE,54,7.0,9.0,58,0.00,,,0.00,meteohub,2013-03-29 18:44:00,
2013-03-29 13:49:00,58.3,43.5,29.55,ESE,114,2.0,10.0,58,0.00,,,0.00,meteohub,2013-03-29 18:49:00,
2013-03-29 13:54:00,58.3,43.5,29.55,East,85,3.0,10.0,58,0.00,,,0.00,meteohub,2013-03-29 18:54:00,
2013-03-29 13:59:00,58.5,42.8,29.55,ENE,70,5.0,10.0,56,0.00,,,0.00,meteohub,2013-03-29 18:59:00,
2013-03-29 14:04:00,58.6,43.5,29.54,ESE,122,3.0,11.0,57,0.00,,,0.00,meteohub,2013-03-29 19:04:00,
2013-03-29 14:09:00,58.8,42.6,29.54,SE,127,1.0,11.0,55,0.00,,,0.00,meteohub,2013-03-29 19:09:00,
2013-03-29 14:14:00,59.2,42.6,29.54,East,88,6.0,11.0,54,0.00,,,0.00,meteohub,2013-03-29 19:14:00,
2013-03-29 14:19:00,59.0,42.4,29.54,NE,44,3.0,12.0,54,0.00,,,0.00,meteohub,2013-03-29 19:19:00,
2013-03-29 14:24:00,59.2,42.1,29.54,East,80,5.0,12.0,53,0.00,,,0.00,meteohub,2013-03-29 19:24:00,
2013-03-29 14:29:00,59.4,41.7,29.53,ESE,111,6.0,10.0,52,0.00,,,0.00,meteohub,2013-03-29 19:29:00,
2013-03-29 14:34:00,59.5,41.9,29.53,ESE,103,1.0,10.0,52,0.00,,,0.00,meteohub,2013-03-29 19:34:00,
2013-03-29 14:39:00,59.4,41.2,29.53,ESE,110,1.0,10.0,51,0.00,,,0.00,meteohub,2013-03-29 19:39:00,
2013-03-29 14:44:00,59.7,41.0,29.53,SE,130,4.0,10.0,50,0.00,,,0.00,meteohub,2013-03-29 19:44:00,
2013-03-29 14:50:00,59.9,41.2,29.53,ESE,107,1.0,10.0,50,0.00,,,0.00,meteohub,2013-03-29 19:50:00,
2013-03-29 14:55:00,60.3,42.1,29.53,ENE,70,0.0,10.0,51,0.00,,,0.00,meteohub,2013-03-29 19:55:00,
2013-03-29 15:00:00,60.3,41.5,29.53,SE,126,4.0,10.0,50,0.00,,,0.00,meteohub,2013-03-29 20:00:00,
2013-03-29 15:05:00,60.3,41.0,29.52,NNE,19,3.0,10.0,49,0.00,,,0.00,meteohub,2013-03-29 20:05:00,
2013-03-29 15:10:00,60.6,41.4,29.52,ENE,67,6.0,9.0,49,0.00,,,0.00,meteohub,2013-03-29 20:10:00,
2013-03-29 15:15:00,60.4,41.2,29.52,ESE,109,3.0,10.0,49,0.00,,,0.00,meteohub,2013-03-29 20:15:00,
2013-03-29 15:20:00,60.4,40.6,29.52,ESE,110,2.0,10.0,48,0.00,,,0.00,meteohub,2013-03-29 20:20:00,
2013-03-29 15:25:00,60.4,39.6,29.52,NE,47,6.0,10.0,46,0.00,,,0.00,meteohub,2013-03-29 20:25:00,
2013-03-29 15:30:00,60.4,40.1,29.52,ENE,78,0.0,10.0,47,0.00,,,0.00,meteohub,2013-03-29 20:30:00,
2013-03-29 15:35:00,60.4,40.6,29.52,East,84,2.0,12.0,48,0.00,,,0.00,meteohub,2013-03-29 20:35:00,
2013-03-29 15:40:00,60.4,40.6,29.51,ENE,63,2.0,12.0,48,0.00,,,0.00,meteohub,2013-03-29 20:40:00,
2013-03-29 15:45:00,60.6,39.7,29.51,ESE,117,2.0,12.0,46,0.00,,,0.00,meteohub,2013-03-29 20:45:00,
2013-03-29 15:50:00,61.0,40.6,29.51,ENE,73,4.0,11.0,47,0.00,,,0.00,meteohub,2013-03-29 20:50:00,
2013-03-29 15:55:00,61.2,39.0,29.51,SE,130,4.0,11.0,44,0.00,,,0.00,meteohub,2013-03-29 20:55:00,
2013-03-29 16:00:00,61.2,40.3,29.51,East,81,1.0,11.0,46,0.00,,,0.00,meteohub,2013-03-29 21:00:00,
2013-03-29 16:05:00,61.0,40.6,29.51,ENE,59,5.0,10.0,47,0.00,,,0.00,meteohub,2013-03-29 21:05:00,
2013-03-29 16:10:00,60.8,39.9,29.51,NE,38,5.0,9.0,46,0.00,,,0.00,meteohub,2013-03-29 21:10:00,
2013-03-29 16:15:00,60.8,39.4,29.51,SSE,150,0.0,10.0,45,0.00,,,0.00,meteohub,2013-03-29 21:15:00,
2013-03-29 16:20:00,61.0,39.6,29.51,ESE,120,4.0,10.0,45,0.00,,,0.00,meteohub,2013-03-29 21:20:00,
2013-03-29 16:25:00,61.3,41.5,29.51,East,101,3.0,7.0,48,0.00,,,0.00,meteohub,2013-03-29 21:25:00,
2013-03-29 16:30:00,61.3,39.7,29.51,ENE,63,6.0,8.0,45,0.00,,,0.00,meteohub,2013-03-29 21:30:00,
2013-03-29 16:35:00,61.2,39.0,29.50,East,82,0.0,8.0,44,0.00,,,0.00,meteohub,2013-03-29 21:35:00,
2013-03-29 16:40:00,61.5,39.9,29.50,NE,56,2.0,8.0,45,0.00,,,0.00,meteohub,2013-03-29 21:40:00,
2013-03-29 16:45:00,61.5,39.9,29.50,ESE,105,2.0,7.0,45,0.00,,,0.00,meteohub,2013-03-29 21:45:00,
2013-03-29 16:50:00,61.5,41.2,29.50,SE,134,4.0,6.0,47,0.00,,,0.00,meteohub,2013-03-29 21:50:00,
2013-03-29 16:56:00,61.3,40.5,29.50,ESE,122,0.0,6.0,46,0.00,,,0.00,meteohub,2013-03-29 21:56:00,
2013-03-29 17:01:00,61.3,39.2,29.50,ENE,60,3.0,6.0,44,0.00,,,0.00,meteohub,2013-03-29 22:01:00,
2013-03-29 17:06:00,61.2,40.8,29.50,ESE,113,2.0,9.0,47,0.00,,,0.00,meteohub,2013-03-29 22:06:00,
2013-03-29 17:11:00,61.2,41.4,29.50,ESE,114,2.0,9.0,48,0.00,,,0.00,meteohub,2013-03-29 22:11:00,
2013-03-29 17:16:00,61.0,41.2,29.50,ESE,105,1.0,11.0,48,0.00,,,0.00,meteohub,2013-03-29 22:16:00,
2013-03-29 17:21:00,61.0,40.6,29.50,ESE,108,0.0,11.0,47,0.00,,,0.00,meteohub,2013-03-29 22:21:00,
2013-03-29 17:26:00,61.0,40.6,29.50,ESE,117,2.0,5.0,47,0.00,,,0.00,meteohub,2013-03-29 22:26:00,
2013-03-29 17:31:00,60.8,40.5,29.50,SSE,150,4.0,7.0,47,0.00,,,0.00,meteohub,2013-03-29 22:31:00,
2013-03-29 17:37:00,60.6,40.8,29.50,ESE,111,0.0,9.0,48,0.00,,,0.00,meteohub,2013-03-29 22:37:00,
2013-03-29 17:42:00,60.6,40.8,29.50,SE,141,0.0,9.0,48,0.00,,,0.00,meteohub,2013-03-29 22:42:00,
2013-03-29 17:47:00,60.4,41.2,29.50,ESE,117,6.0,7.0,49,0.00,,,0.00,meteohub,2013-03-29 22:47:00,
2013-03-29 17:52:00,60.4,41.2,29.50,SE,133,4.0,7.0,49,0.00,,,0.00,meteohub,2013-03-29 22:52:00,
2013-03-29 17:57:00,60.3,41.0,29.50,SSE,155,4.0,11.0,49,0.00,,,0.00,meteohub,2013-03-29 22:57:00,
2013-03-29 18:02:00,60.1,40.8,29.50,SE,137,2.0,11.0,49,0.00,,,0.00,meteohub,2013-03-29 23:02:00,
2013-03-29 18:07:00,59.9,40.6,29.50,SE,130,4.0,11.0,49,0.00,,,0.00,meteohub,2013-03-29 23:07:00,
2013-03-29 18:12:00,59.7,40.5,29.50,ESE,110,0.0,7.0,49,0.00,,,0.00,meteohub,2013-03-29 23:12:00,
2013-03-29 18:17:00,59.5,40.3,29.50,SE,130,2.0,7.0,49,0.00,,,0.00,meteohub,2013-03-29 23:17:00,
2013-03-29 18:22:00,59.4,40.3,29.50,SE,130,2.0,9.0,49,0.00,,,0.00,meteohub,2013-03-29 23:22:00,
2013-03-29 18:27:00,59.4,40.6,29.50,SE,125,0.0,9.0,50,0.00,,,0.00,meteohub,2013-03-29 23:27:00,
2013-03-29 18:32:00,59.2,41.0,29.50,SE,126,1.0,9.0,51,0.00,,,0.00,meteohub,2013-03-29 23:32:00,
2013-03-29 18:37:00,59.0,41.4,29.50,ESE,105,0.0,8.0,52,0.00,,,0.00,meteohub,2013-03-29 23:37:00,
2013-03-29 18:42:00,58.8,41.2,29.50,ESE,121,5.0,10.0,52,0.00,,,0.00,meteohub,2013-03-29 23:42:00,
2013-03-29 18:47:00,58.6,41.5,29.50,ESE,121,1.0,11.0,53,0.00,,,0.00,meteohub,2013-03-29 23:47:00,
2013-03-29 18:52:00,58.6,41.5,29.50,SE,130,1.0,11.0,53,0.00,,,0.00,meteohub,2013-03-29 23:52:00,
2013-03-29 18:57:00,58.5,41.4,29.50,SE,130,3.0,11.0,53,0.00,,,0.00,meteohub,2013-03-29 23:57:00,
2013-03-29 19:02:00,58.3,41.7,29.50,SE,142,7.0,7.0,54,0.00,,,0.00,meteohub,2013-03-30 00:02:00,
2013-03-29 19:07:00,57.9,41.4,29.50,SE,144,4.0,7.0,54,0.00,,,0.00,meteohub,2013-03-30 00:07:00,
2013-03-29 19:12:00,57.7,41.2,29.50,SSE,162,3.0,7.0,54,0.00,,,0.00,meteohub,2013-03-30 00:12:00,
2013-03-29 19:17:00,57.4,41.4,29.50,SSE,162,2.0,7.0,55,0.00,,,0.00,meteohub,2013-03-30 00:17:00,
2013-03-29 19:23:00,57.0,41.0,29.50,SSE,158,1.0,6.0,55,0.00,,,0.00,meteohub,2013-03-30 00:23:00,
2013-03-29 19:28:00,56.8,41.4,29.50,SSE,150,1.0,6.0,56,0.00,,,0.00,meteohub,2013-03-30 00:28:00,
2013-03-29 19:33:00,56.7,41.2,29.50,SSE,150,0.0,6.0,56,0.00,,,0.00,meteohub,2013-03-30 00:33:00,
2013-03-29 19:38:00,56.3,41.2,29.51,SSE,150,0.0,5.0,57,0.00,,,0.00,meteohub,2013-03-30 00:38:00,
2013-03-29 19:43:00,55.9,41.4,29.51,SSE,150,0.0,6.0,58,0.00,,,0.00,meteohub,2013-03-30 00:43:00,
2013-03-29 19:48:00,55.8,41.2,29.51,SSE,150,0.0,6.0,58,0.00,,,0.00,meteohub,2013-03-30 00:48:00,
2013-03-29 19:53:00,55.4,41.4,29.50,SSE,150,0.0,4.0,59,0.00,,,0.00,meteohub,2013-03-30 00:53:00,
2013-03-29 19:58:00,55.0,41.4,29.51,SSE,150,4.0,5.0,60,0.00,,,0.00,meteohub,2013-03-30 00:58:00,
2013-03-29 20:03:00,54.9,41.7,29.51,SSE,150,1.0,6.0,61,0.00,,,0.00,meteohub,2013-03-30 01:03:00,
2013-03-29 20:08:00,54.7,41.5,29.51,SSE,150,0.0,6.0,61,0.00,,,0.00,meteohub,2013-03-30 01:08:00,
2013-03-29 20:13:00,54.3,41.2,29.51,SSE,150,0.0,6.0,61,0.00,,,0.00,meteohub,2013-03-30 01:13:00,
2013-03-29 20:18:00,54.1,41.4,29.51,SSE,150,3.0,4.0,62,0.00,,,0.00,meteohub,2013-03-30 01:18:00,
2013-03-29 20:23:00,54.0,41.2,29.52,SSE,154,3.0,7.0,62,0.00,,,0.00,meteohub,2013-03-30 01:23:00,
2013-03-29 20:28:00,53.8,41.0,29.52,SE,142,2.0,7.0,62,0.00,,,0.00,meteohub,2013-03-30 01:28:00,
2013-03-29 20:33:00,53.4,41.2,29.52,SE,146,2.0,7.0,63,0.00,,,0.00,meteohub,2013-03-30 01:33:00,
2013-03-29 20:38:00,53.4,41.2,29.52,SE,146,3.0,6.0,63,0.00,,,0.00,meteohub,2013-03-30 01:38:00,
2013-03-29 20:43:00,53.2,41.4,29.52,SE,146,2.0,6.0,64,0.00,,,0.00,meteohub,2013-03-30 01:43:00,
2013-03-29 20:48:00,53.1,41.5,29.52,SE,146,0.0,6.0,65,0.00,,,0.00,meteohub,2013-03-30 01:48:00,
2013-03-29 20:53:00,52.9,41.4,29.52,SE,146,2.0,5.0,65,0.00,,,0.00,meteohub,2013-03-30 01:53:00,
2013-03-29 20:58:00,52.5,41.5,29.52,SE,146,3.0,5.0,66,0.00,,,0.00,meteohub,2013-03-30 01:58:00,
2013-03-29 21:04:00,52.3,41.4,29.52,SE,146,2.0,5.0,66,0.00,,,0.00,meteohub,2013-03-30 02:04:00,
2013-03-29 21:09:00,52.2,41.5,29.52,SE,140,5.0,5.0,67,0.00,,,0.00,meteohub,2013-03-30 02:09:00,
2013-03-29 21:14:00,52.0,41.7,29.52,SE,128,2.0,6.0,68,0.00,,,0.00,meteohub,2013-03-30 02:14:00,
2013-03-29 21:19:00,51.8,41.9,29.53,SE,132,0.0,7.0,69,0.00,,,0.00,meteohub,2013-03-30 02:19:00,
2013-03-29 21:24:00,51.6,41.7,29.53,SE,131,5.0,7.0,69,0.00,,,0.00,meteohub,2013-03-30 02:24:00,
2013-03-29 21:29:00,51.4,41.9,29.53,SE,137,5.0,5.0,70,0.00,,,0.00,meteohub,2013-03-30 02:29:00,
2013-03-29 21:34:00,51.3,41.9,29.52,SE,138,2.0,6.0,70,0.00,,,0.00,meteohub,2013-03-30 02:34:00,
2013-03-29 21:39:00,51.1,42.1,29.52,SE,138,2.0,6.0,71,0.00,,,0.00,meteohub,2013-03-30 02:39:00,
2013-03-29 21:44:00,51.1,42.1,29.53,SE,138,1.0,6.0,71,0.00,,,0.00,meteohub,2013-03-30 02:44:00,
2013-03-29 21:49:00,50.7,41.7,29.52,SE,136,3.0,5.0,71,0.00,,,0.00,meteohub,2013-03-30 02:49:00,
2013-03-29 21:54:00,50.7,42.1,29.52,SE,144,2.0,7.0,72,0.00,,,0.00,meteohub,2013-03-30 02:54:00,
2013-03-29 21:59:00,50.5,41.9,29.52,SE,133,4.0,7.0,72,0.00,,,0.00,meteohub,2013-03-30 02:59:00,
2013-03-29 22:04:00,50.5,41.9,29.52,SE,133,2.0,7.0,72,0.00,,,0.00,meteohub,2013-03-30 03:04:00,
2013-03-29 22:09:00,50.4,41.7,29.53,SE,133,2.0,7.0,72,0.00,,,0.00,meteohub,2013-03-30 03:09:00,
2013-03-29 22:14:00,50.4,42.1,29.53,SE,145,2.0,7.0,73,0.00,,,0.00,meteohub,2013-03-30 03:14:00,
2013-03-29 22:19:00,50.2,41.9,29.53,SE,141,2.0,6.0,73,0.00,,,0.00,meteohub,2013-03-30 03:19:00,
2013-03-29 22:24:00,50.0,42.8,29.53,SE,141,3.0,6.0,76,0.00,,,0.00,meteohub,2013-03-30 03:24:00,
2013-03-29 22:29:00,49.8,41.5,29.53,SE,142,3.0,6.0,73,0.00,,,0.00,meteohub,2013-03-30 03:29:00,
2013-03-29 22:34:00,49.6,41.7,29.52,SE,140,5.0,6.0,74,0.00,,,0.00,meteohub,2013-03-30 03:34:00,
2013-03-29 22:39:00,49.6,41.7,29.52,SSE,161,2.0,5.0,74,0.00,,,0.00,meteohub,2013-03-30 03:39:00,
2013-03-29 22:44:00,49.6,41.7,29.52,SSE,159,2.0,6.0,74,0.00,,,0.00,meteohub,2013-03-30 03:44:00,
2013-03-29 22:49:00,49.5,41.5,29.52,SSE,154,0.0,6.0,74,0.00,,,0.00,meteohub,2013-03-30 03:49:00,
2013-03-29 22:54:00,49.5,41.5,29.52,SSE,154,0.0,6.0,74,0.00,,,0.00,meteohub,2013-03-30 03:54:00,
2013-03-29 22:59:00,49.5,41.5,29.52,SSE,150,3.0,6.0,74,0.00,,,0.00,meteohub,2013-03-30 03:59:00,
2013-03-29 23:00:00,49.3,41.4,29.52,SSE,150,5.0,6.0,74,0.00,,,0.00,meteohub,2013-03-30 04:00:00,
2013-03-29 23:05:00,49.3,41.4,29.52,SSE,150,0.0,7.0,74,0.00,,,0.00,meteohub,2013-03-30 04:05:00,
2013-03-29 23:10:00,49.3,41.7,29.52,SSE,150,1.0,7.0,75,0.00,,,0.00,meteohub,2013-03-30 04:10:00,
2013-03-29 23:15:00,48.9,41.4,29.52,SSE,150,5.0,5.0,75,0.00,,,0.00,meteohub,2013-03-30 04:15:00,
2013-03-29 23:21:00,48.9,41.4,29.52,SSE,150,4.0,5.0,75,0.00,,,0.00,meteohub,2013-03-30 04:21:00,
2013-03-29 23:26:00,48.9,41.4,29.51,SSE,150,5.0,6.0,75,0.00,,,0.00,meteohub,2013-03-30 04:26:00,
2013-03-29 23:31:00,48.9,41.4,29.51,SSE,150,4.0,6.0,75,0.00,,,0.00,meteohub,2013-03-30 04:31:00,
2013-03-29 23:36:00,48.7,41.2,29.51,SSE,150,1.0,6.0,75,0.00,,,0.00,meteohub,2013-03-30 04:36:00,
2013-03-29 23:41:00,48.6,41.0,29.51,SSE,150,1.0,6.0,75,0.00,,,0.00,meteohub,2013-03-30 04:41:00,
2013-03-29 23:46:00,48.4,41.2,29.50,SE,144,2.0,5.0,76,0.00,,,0.00,meteohub,2013-03-30 04:46:00,
2013-03-29 23:51:00,48.2,41.0,29.50,SE,144,3.0,6.0,76,0.00,,,0.00,meteohub,2013-03-30 04:51:00,
2013-03-29 23:56:00,48.0,41.2,29.50,SE,142,2.0,6.0,77,0.00,,,0.00,meteohub,2013-03-30 04:56:00,